This is the latest recevied weather packets stored in our database for station/object N3TTT-13. If no packets are shown the sender has not sent any weather packets the latest 1 day(s).
| Time | Temp. | Humidity | Pressure | Rain* | Wind** | Luminosity | Snow |
|---|---|---|---|---|---|---|---|
| 1778038274 | 20.56° C | 73% | 1011.8 hPa | 0 mm | 0 m/s | 0 W/m² | - |
| 1778037971 | 20.56° C | 73% | 1011.8 hPa | 0 mm | 0.45 m/s, 272° | 0 W/m² | - |
| 1778037668 | 20.56° C | 73% | 1011.9 hPa | 0 mm | 0 m/s | 0 W/m² | - |
| 1778037365 | 20.56° C | 73% | 1011.8 hPa | 0 mm | 0.45 m/s, 229° | 0 W/m² | - |
| 1778037062 | 20.56° C | 72% | 1011.8 hPa | 0 mm | 0 m/s | 0 W/m² | - |
| 1778036761 | 20° C | 73% | 1012.1 hPa | 0 mm | 0 m/s | 0 W/m² | - |
| 1778036457 | 20° C | 72% | 1012.1 hPa | 0 mm | 0.45 m/s, 264° | 0 W/m² | - |
| 1778036154 | 20.56° C | 72% | 1012 hPa | 0 mm | 0 m/s | 0 W/m² | - |
| 1778035850 | 20.56° C | 72% | 1012.2 hPa | 0 mm | 0.89 m/s, 214° | 0 W/m² | - |
| 1778035548 | 20° C | 72% | 1012.2 hPa | 0 mm | 0 m/s | 0 W/m² | - |
| 1778035244 | 20.56° C | 71% | 1012.1 hPa | 0 mm | 0 m/s | 0 W/m² | - |
| 1778034940 | 20.56° C | 71% | 1012.2 hPa | 0 mm | 0 m/s | 0 W/m² | - |
| 1778034638 | 20.56° C | 70% | 1012.4 hPa | 0 mm | 0.45 m/s, 239° | 0 W/m² | - |
| 1778034335 | 20.56° C | 69% | 1012.3 hPa | 0 mm | 0.45 m/s, 242° | 0 W/m² | - |
| 1778034032 | 20.56° C | 69% | 1012 hPa | 0 mm | 0.89 m/s, 171° | 0 W/m² | - |
| 1778033730 | 20.56° C | 69% | 1012.2 hPa | 0 mm | 0.45 m/s, 244° | 0 W/m² | - |
| 1778033427 | 20.56° C | 68% | 1012.2 hPa | 0 mm | 1.34 m/s, 109° | 0 W/m² | - |
| 1778033125 | 21.11° C | 68% | 1012.1 hPa | 0 mm | 0 m/s | 0 W/m² | - |
| 1778032822 | 21.11° C | 67% | 1011.9 hPa | 0 mm | 0.45 m/s, 252° | 0 W/m² | - |
| 1778032519 | 21.11° C | 67% | 1011.9 hPa | 0 mm | 0 m/s | 0 W/m² | - |
| 1778032216 | 21.11° C | 66% | 1011.9 hPa | 0 mm | 1.34 m/s, 233° | 0 W/m² | - |
| 1778031913 | 21.11° C | 66% | 1011.7 hPa | 0 mm | 0 m/s | 0 W/m² | - |
| 1778031609 | 21.67° C | 65% | 1011.8 hPa | 0 mm | 0.45 m/s, 250° | 0 W/m² | - |
| 1778031307 | 21.67° C | 65% | 1011.4 hPa | 0 mm | 0.45 m/s, 235° | 0 W/m² | - |
| 1778031004 | 21.67° C | 64% | 1011.8 hPa | 0 mm | 0.45 m/s, 260° | 0 W/m² | - |
* Rain latest hour (hover to see other rain measurements)
** Current wind speed in m/s (hover to see current wind gust speed)